Time,TemperatureF,DewpointF,PressureIn,WindDirection,WindDirectionDegrees,WindSpeedMPH,WindSpeedGustMPH,Humidity,HourlyPrecipIn,Conditions,Clouds,dailyrainin,SoftwareType,DateUTC
2013-04-24 00:00:00,62.1,58.5,30.15,North,9,3.0,8.0,88,0.00,,---,0.00,VWS V14.01,2013-04-24 04:00:00,
2013-04-24 01:00:00,61.1,57.8,30.15,NNW,327,1.0,6.0,89,0.00,,---,0.00,VWS V14.01,2013-04-24 05:00:00,
2013-04-24 02:00:00,60.3,58.0,30.14,NW,311,2.0,5.0,92,0.00,,---,0.00,VWS V14.01,2013-04-24 06:00:00,
2013-04-24 03:00:00,61.9,59.9,30.11,North,5,3.0,7.0,93,0.00,,---,0.00,VWS V14.01,2013-04-24 07:00:00,
2013-04-24 04:00:00,62.4,60.3,30.10,NNE,31,7.0,8.0,93,0.00,,---,0.00,VWS V14.01,2013-04-24 08:00:00,
2013-04-24 05:00:00,62.8,60.8,30.11,NNE,19,4.0,9.0,93,0.00,,---,0.00,VWS V14.01,2013-04-24 09:00:00,
2013-04-24 06:00:00,62.4,60.3,30.12,NNE,13,2.0,7.0,93,0.00,,---,0.00,VWS V14.01,2013-04-24 10:00:00,
2013-04-24 07:00:00,62.9,61.2,30.13,NNE,12,4.0,6.0,94,0.00,,---,0.00,VWS V14.01,2013-04-24 11:00:00,
2013-04-24 08:00:00,64.4,62.3,30.16,NNE,15,2.0,7.0,93,0.00,,---,0.00,VWS V14.01,2013-04-24 12:00:00,
2013-04-24 09:00:00,65.8,62.8,30.16,NE,52,3.0,5.0,90,0.00,,---,0.00,VWS V14.01,2013-04-24 13:00:00,
2013-04-24 10:00:00,67.0,63.7,30.17,NE,50,4.0,5.0,89,0.00,,---,0.00,VWS V14.01,2013-04-24 14:00:00,
2013-04-24 11:00:00,68.1,64.4,30.17,NNE,18,3.0,6.0,88,0.00,,---,0.00,VWS V14.01,2013-04-24 15:00:00,
2013-04-24 12:00:00,69.0,65.0,30.16,NE,35,3.0,7.0,87,0.00,,---,0.00,VWS V14.01,2013-04-24 16:00:00,
2013-04-24 13:00:00,71.6,66.2,30.16,East,98,2.0,7.0,83,0.00,,---,0.00,VWS V14.01,2013-04-24 17:00:00,
2013-04-24 14:00:00,72.6,67.2,30.15,ENE,58,5.0,8.0,83,0.00,,---,0.00,VWS V14.01,2013-04-24 18:00:00,
2013-04-24 15:00:00,73.7,66.1,30.14,North,355,2.0,9.0,77,0.00,,---,0.00,VWS V14.01,2013-04-24 19:00:00,
2013-04-24 16:00:00,73.2,67.0,30.11,SE,140,5.0,9.0,81,0.00,,---,0.00,VWS V14.01,2013-04-24 20:00:00,
2013-04-24 17:00:00,72.6,66.4,30.11,East,96,6.0,10.0,81,0.00,,---,0.00,VWS V14.01,2013-04-24 21:00:00,
2013-04-24 18:00:00,72.3,66.8,30.11,SE,140,3.0,10.0,83,0.00,,---,0.00,VWS V14.01,2013-04-24 22:00:00,
2013-04-24 19:00:00,70.9,66.2,30.10,SE,143,2.0,8.0,85,0.00,,---,0.00,VWS V14.01,2013-04-24 23:00:00,
2013-04-24 20:00:00,69.8,66.1,30.10,SE,137,7.0,9.0,88,0.00,,---,0.00,VWS V14.01,2013-04-25 00:00:00,
2013-04-24 21:00:00,69.6,65.9,30.12,SE,136,9.0,10.0,88,0.00,,---,0.00,VWS V14.01,2013-04-25 01:00:00,
2013-04-24 22:00:00,69.5,65.5,30.14,South,175,2.0,9.0,87,0.00,,---,0.00,VWS V14.01,2013-04-25 02:00:00,
2013-04-24 23:00:00,69.6,64.6,30.14,South,184,2.0,9.0,84,0.00,,---,0.00,VWS V14.01,2013-04-25 03:00:00,